Location: Seattle
(47.6064°N, 122.3308°W)
Time: 14:59:52
(UTC-08:00)

S-56A Canister/Altair - Pass Details

Date: 04 October 2022
Orbit: 638 x 2494 km, 38.9° (Epoch: 03 December)

Event Time Altitude Azimuth Distance (km) Brightness Sun altitude
Exits shadow 01:56:28 10° 97° (E) 3,412 10.9 -45.0°
Drops below altitude 10° 01:56:34 10° 97° (E) 3,438 10.9 -45.0°
Sets 01:59:18 0° 89° (E) 4,173 11.5 -44.8°
